Hickory, NC

9:23 PM EST on February 25, 2017 (GMT -0500)
Hickory Regional

Weather History for KHKY - January, 2011

Change the Weather History Date:

Friday, January 7, 2011

  Actual Average Record
Temperature  
Mean Temperature 39 °F -  
Max Temperature 45 °F 48 °F 69 °F (1982)
Min Temperature 33 °F 29 °F 5 °F (2014)
Degree Days  
Heating Degree Days 26    
Moisture  
Dew Point 25 °F    
Average Humidity 61    
Maximum Humidity 92    
Minimum Humidity 39    
Precipitation  
Precipitation 0.00 in - - ()
Sea Level Pressure  
Sea Level Pressure 29.43 in    
Wind  
Wind Speed 7 mph (WSW)    
Max Wind Speed 15 mph    
Max Gust Speed 21 mph    
Visibility 10 miles    
Events      
Averages and records for this station are not official NWS values.
T = Trace of Precipitation, MM = Missing Value Source: NWS Daily Summary

Daily Weather History Graph

Daily Weather History Graph

Search for Another Location

Airport or City:

Trip Planner

Search our weather history database for the weather conditions in past years. The results will help you decide how hot, cold, wet, or windy it might be!

Date:

Astronomy

Jan. 07, 2011 Rise Set
Actual Time 7:36 AM EST 5:27 PM EST
Civil Twilight 7:07 AM EST 5:55 PM EST
Nautical Twilight 6:36 AM EST 6:27 PM EST
Astronomical Twilight 6:05 AM EST 6:58 PM EST
Moon 9:25 AM EST (1/7) 8:54 PM EST (1/7)
Length of Visible Light 10h 48m
Length of Day
9h 51m
Waxing Crescent, 11% of the Moon is Illuminated
Jan 7
Waxing Crescent
Jan 12
First Quarter
Jan 19
Full
Jan 26
Last Quarter
Feb 2
New

Hourly Weather History & Observations

Time (EST) Temp. Windchill Dew Point Humidity Pressure Visibility Wind Dir Wind Speed Gust Speed Precip Events Conditions
12:53 AM 37.0 °F 32.4 °F 24.1 °F 59% 29.52 in 10.0 mi WSW 5.8 mph - N/A   Overcast
1:53 AM 39.0 °F 32.3 °F 23.0 °F 53% 29.51 in 10.0 mi West 10.4 mph 20.7 mph N/A   Overcast
2:53 AM 37.9 °F 34.4 °F 23.0 °F 55% 29.49 in 10.0 mi Variable 4.6 mph - N/A   Overcast
3:53 AM 39.0 °F 30.6 °F 21.9 °F 50% 29.49 in 10.0 mi West 15.0 mph 20.7 mph N/A   Overcast
4:53 AM 36.0 °F 30.3 °F 21.0 °F 55% 29.47 in 10.0 mi West 6.9 mph - N/A   Partly Cloudy
5:53 AM 37.0 °F 29.8 °F 21.0 °F 52% 29.49 in 10.0 mi West 10.4 mph - N/A   Clear
6:53 AM 34.0 °F 29.8 °F 21.9 °F 61% 29.48 in 10.0 mi SSW 4.6 mph - N/A   Clear
7:53 AM 33.1 °F 30.0 °F 23.0 °F 66% 29.48 in 10.0 mi South 3.5 mph - N/A   Clear
8:53 AM 36.0 °F 31.1 °F 24.1 °F 62% 29.48 in 10.0 mi SSW 5.8 mph - N/A   Clear
9:53 AM 39.9 °F 35.1 °F 23.0 °F 51% 29.46 in 10.0 mi SSW 6.9 mph - N/A   Clear
10:53 AM 41.0 °F 36.4 °F 23.0 °F 49% 29.44 in 10.0 mi Variable 6.9 mph - N/A   Mostly Cloudy
11:53 AM 45.0 °F 39.3 °F 21.9 °F 40% 29.40 in 10.0 mi West 11.5 mph 18.4 mph N/A   Partly Cloudy
12:05 PM 44.6 °F 38.4 °F 21.2 °F 39% 29.41 in 10.0 mi West 12.7 mph - N/A   Clear
12:53 PM 45.0 °F 40.1 °F 23.0 °F 42% 29.36 in 10.0 mi SW 9.2 mph - N/A   Mostly Cloudy
2:53 PM 45.0 °F 40.1 °F 23.0 °F 42% 29.32 in 10.0 mi West 9.2 mph - N/A   Overcast
3:53 PM 42.1 °F 36.1 °F 28.0 °F 58% 29.34 in 10.0 mi SW 10.4 mph - N/A   Mostly Cloudy
4:53 PM 39.9 °F 33.9 °F 30.9 °F 70% 29.36 in 10.0 mi SSW 9.2 mph - N/A   Overcast
5:53 PM 37.9 °F 34.4 °F 34.0 °F 86% 29.37 in 10.0 mi South 4.6 mph - 0.00 in   Overcast
6:53 PM 37.0 °F 34.5 °F 34.0 °F 89% 29.37 in 10.0 mi South 3.5 mph - 0.00 in   Overcast
7:53 PM 37.0 °F - 34.0 °F 89% 29.39 in 10.0 mi Calm Calm - N/A   Overcast
8:53 PM 34.0 °F 29.8 °F 32.0 °F 92% 29.39 in 10.0 mi WSW 4.6 mph - N/A   Clear
9:53 PM 36.0 °F 30.3 °F 28.0 °F 73% 29.41 in 10.0 mi WNW 6.9 mph - N/A   Clear
10:53 PM 35.1 °F 28.6 °F 26.1 °F 70% 29.42 in 10.0 mi West 8.1 mph - N/A   Partly Cloudy
11:53 PM 33.1 °F 30.0 °F 24.1 °F 70% 29.41 in 10.0 mi West 3.5 mph - N/A   Clear